1509310800.02,807,9.75,71502.0,-12.43,-13.29,-13.33,0,*60
1509310801.29,808,9.75,71500.0,-12.41,-13.33,-13.33,0,*66
1509310802.57,809,9.75,71502.8,-12.41,-13.29,-13.33,0,*6C
1509310803.79,810,9.75,71504.3,-12.41,-13.23,-13.23,0,*6F
1509310805.07,811,9.75,71498.5,-12.41,-13.29,-13.29,0,*6E
1509310806.34,812,9.75,71492.5,-12.41,-13.29,-13.29,0,*6D
1509310807.59,813,9.75,71488.3,-12.41,-13.23,-13.29,0,*66
1509310808.82,814,9.75,71488.5,-12.41,-13.23,-13.23,0,*6B
1509310810.09,815,9.75,71478.0,-12.41,-13.33,-13.33,0,*6A
1509310811.32,816,9.75,71476.8,-12.43,-13.69,-13.61,0,*63
1509310812.54,817,9.75,71476.5,-12.41,-13.55,-13.47,0,*6B
1509310813.76,818,9.75,71474.5,-12.41,-13.55,-13.55,0,*67
1509310814.98,819,9.75,71474.8,-12.41,-13.43,-13.47,0,*62
1509310816.19,820,9.75,71468.8,-12.41,-13.55,-13.47,0,*6F
1509310817.39,821,9.75,71448.5,-12.43,-13.43,-13.47,0,*6B
1509310818.61,822,9.75,71444.0,-12.41,-13.47,-13.55,0,*6D
1509310819.82,823,9.75,71444.3,-12.41,-13.47,-13.47,0,*6F
1509310821.05,824,9.75,71446.3,-12.41,-13.55,-13.55,0,*68
1509310822.26,825,9.75,71454.0,-12.41,-13.47,-13.47,0,*69
1509310823.47,826,9.75,71466.0,-12.41,-13.47,-13.47,0,*6A
1509310824.75,827,9.75,71468.0,-12.41,-13.33,-13.33,0,*6B
1509310825.96,828,9.75,71476.3,-12.41,-13.43,-13.43,0,*64
1509310827.19,829,9.75,71476.5,-12.43,-13.33,-13.43,0,*60
1509310828.44,830,9.75,71478.8,-12.41,-13.43,-13.33,0,*6A
1509310829.71,831,9.75,71480.8,-12.41,-13.33,-13.33,0,*6C
1509310830.96,832,9.75,71476.5,-12.41,-13.43,-13.33,0,*68
1509310832.24,833,9.75,71484.3,-12.41,-13.33,-13.33,0,*6E
1509310833.47,834,9.75,71488.0,-12.39,-13.29,-13.23,0,*6C
1509310834.72,835,9.75,71494.8,-12.41,-13.29,-13.23,0,*62
1509310835.99,836,9.75,71500.3,-12.41,-13.29,-13.29,0,*6B
1509310837.22,837,9.75,71504.8,-12.41,-13.23,-13.23,0,*6A
1509310838.49,838,9.75,71512.0,-12.41,-13.29,-13.29,0,*65
1509310839.76,839,9.75,71518.3,-12.41,-13.29,-13.29,0,*64
1509310841.0,840,9.75,71522.8,-12.39,-13.29,-13.23,0,*6F
1509310842.25,841,9.75,71524.5,-12.39,-13.29,-13.29,0,*64
1509310843.5,842,9.75,71526.3,-12.39,-13.29,-13.29,0,*67
1509310844.7,843,9.75,71524.5,-12.39,-13.43,-13.43,0,*66
1509310845.9,844,9.75,71524.5,-12.39,-13.65,-13.65,0,*61
1509310847.12,845,9.81,71538.5,-12.35,-13.47,-13.47,0,*6C
1509310848.35,846,9.75,71538.0,-12.39,-13.43,-13.37,0,*60
1509310849.6,847,9.75,71544.5,-12.39,-13.37,-13.29,0,*6D
1509310850.85,848,9.75,71552.3,-12.39,-13.37,-13.37,0,*6D
1509310852.06,849,9.75,71556.8,-12.39,-13.51,-13.51,0,*6C
1509310853.27,850,9.75,71570.5,-12.41,-13.47,-13.47,0,*6B
1509310854.47,851,9.75,71578.5,-12.43,-13.47,-13.43,0,*6C
1509310855.7,852,9.75,71576.8,-12.39,-13.37,-13.51,0,*66
1509310856.91,853,9.75,71580.5,-12.39,-13.51,-13.55,0,*63
1509310858.16,854,9.75,71588.0,-12.39,-13.79,-13.79,0,*60
1509310859.41,855,9.75,71578.0,-12.35,-13.93,-14.05,0,*65
1509310860.64,856,9.75,71576.3,-12.39,-13.83,-13.93,0,*63
1509310861.9,857,9.75,71556.0,-12.39,-13.97,-14.05,0,*6F
1509310863.16,858,9.75,71546.8,-12.41,-14.11,-14.01,0,*62
1509310864.44,859,9.75,71502.0,-12.41,-14.01,-14.01,0,*62
1509310865.7,860,9.75,71474.8,-12.43,-14.01,-14.01,0,*6A
1509310866.99,861,9.75,71440.5,-12.41,-13.97,-13.97,0,*69
1509310868.27,862,9.75,71410.0,-12.41,-14.01,-13.97,0,*62
1509310869.47,863,9.75,71394.8,-12.43,-14.11,-14.11,0,*69
1509310870.7,864,9.75,71388.5,-12.43,-14.01,-14.11,0,*6F
1509310871.93,865,9.75,71404.0,-12.43,-14.01,-14.11,0,*6E
1509310873.14,866,9.75,71430.0,-12.43,-13.73,-13.73,0,*6C
1509310874.36,867,9.75,71452.8,-12.41,-13.73,-13.73,0,*6F
1509310875.58,868,9.75,71468.0,-12.41,-13.69,-13.73,0,*6B
1509310876.8,869,9.75,71482.8,-12.43,-13.61,-13.69,0,*6B
1509310878.08,870,9.75,71478.8,-12.41,-13.61,-13.61,0,*69
1509310879.35,871,9.75,71474.3,-12.41,-13.61,-13.61,0,*68
1509310880.55,872,9.75,71472.3,-12.43,-13.69,-13.69,0,*69
1509310881.84,873,9.75,71470.3,-12.41,-13.97,-13.97,0,*6A
1509310883.06,874,9.75,71440.5,-12.41,-14.11,-14.11,0,*6D
1509310884.32,875,9.75,71440.3,-12.43,-13.87,-13.97,0,*6F
1509310885.6,876,9.75,71456.8,-12.41,-13.97,-13.83,0,*6A
1509310886.8,877,9.75,71446.3,-12.43,-13.73,-13.73,0,*6C
1509310888.02,878,9.75,71438.5,-12.43,-13.61,-13.69,0,*6B
1509310889.26,879,9.75,71450.5,-12.41,-13.61,-13.47,0,*64
1509310890.46,880,9.75,71468.0,-12.43,-13.55,-13.47,0,*67
1509310891.66,881,9.75,71482.8,-12.43,-13.55,-13.55,0,*65
1509310892.94,882,9.75,71486.0,-12.41,-13.61,-13.61,0,*64
1509310894.22,883,9.75,71482.5,-12.41,-13.61,-13.61,0,*65
1509310895.49,884,9.75,71472.8,-12.41,-13.61,-13.61,0,*62
1509310896.72,885,9.75,71464.8,-12.43,-13.55,-13.61,0,*66
1509310897.94,886,9.75,71470.5,-12.41,-13.47,-13.69,0,*6C
1509310899.19,887,9.75,71464.3,-12.43,-13.61,-13.61,0,*63
1509310900.41,888,9.75,71488.5,-12.41,-13.47,-13.47,0,*6E
1509310901.6,889,9.75,71468.3,-12.43,-13.47,-13.55,0,*6E
1509310902.82,890,9.75,71480.0,-12.41,-13.47,-13.55,0,*64
1509310904.07,891,9.75,71460.5,-12.41,-13.33,-13.43,0,*61
1509310905.28,892,9.75,71472.3,-12.41,-13.43,-13.47,0,*61
1509310906.5,893,9.75,71460.3,-12.41,-13.43,-13.43,0,*64
1509310907.7,894,9.75,71472.3,-12.43,-13.43,-13.47,0,*65
1509310908.9,895,9.75,71436.5,-12.39,-13.43,-13.51,0,*6E
1509310910.12,896,9.75,71462.5,-12.41,-13.47,-13.55,0,*62
1509310911.34,897,9.75,71472.0,-12.41,-13.47,-13.47,0,*60
1509310912.56,898,9.75,71472.3,-12.41,-13.55,-13.55,0,*6F
1509310913.77,899,9.75,71474.8,-12.41,-13.47,-13.47,0,*6E
1509310914.99,900,9.75,71486.5,-12.41,-13.43,-13.43,0,*6F
1509310916.21,901,9.75,71486.5,-12.41,-13.43,-13.43,0,*6E
1509310917.43,902,9.75,71494.5,-12.41,-13.43,-13.43,0,*6D
1509310918.65,903,9.75,71494.5,-12.41,-13.47,-13.55,0,*6F
1509310919.86,904,9.75,71486.3,-12.41,-13.47,-13.47,0,*6B
1509310921.08,905,9.75,71474.5,-12.41,-13.43,-13.47,0,*6E
1509310922.31,906,9.75,71466.3,-12.39,-13.43,-13.37,0,*65
1509310923.51,907,9.75,71472.0,-12.39,-13.43,-13.43,0,*67
1509310924.71,908,9.75,71470.8,-12.39,-13.43,-13.43,0,*68
1509310925.96,909,9.75,71454.0,-12.35,-13.23,-13.33,0,*64
1509310927.22,910,9.75,71468.3,-12.39,-13.37,-13.29,0,*6E
1509310928.44,911,9.75,71472.0,-12.39,-13.43,-13.37,0,*63
1509310929.67,912,9.75,71470.8,-12.39,-13.37,-13.43,0,*60
1509310930.87,913,9.75,71464.8,-12.39,-13.43,-13.43,0,*62
1509310932.07,914,9.75,71470.0,-12.39,-13.43,-13.51,0,*66
1509310933.3,915,9.75,71482.5,-12.39,-13.37,-13.43,0,*67
1509310934.5,916,9.75,71482.3,-12.39,-13.43,-13.55,0,*60
1509310935.73,917,9.75,71484.3,-12.39,-13.37,-13.43,0,*65
1509310936.94,918,9.75,71486.5,-12.39,-13.51,-13.65,0,*6E
1509310938.14,919,9.75,71486.0,-12.39,-13.55,-13.65,0,*6B
1509310939.34,920,9.75,71476.0,-12.39,-13.65,-13.65,0,*62
1509310940.53,921,9.75,71476.8,-12.39,-13.65,-13.69,0,*6F
1509310941.73,922,9.75,71472.0,-12.39,-13.65,-13.69,0,*6C
1509310942.93,923,9.75,71476.8,-12.39,-13.55,-13.55,0,*61
1509310944.13,924,9.75,71478.0,-12.39,-13.65,-13.65,0,*66
1509310945.34,925,9.75,71472.3,-12.39,-13.55,-13.65,0,*64
1509310946.61,926,9.75,71474.8,-12.41,-13.61,-13.61,0,*6B
1509310947.82,927,9.75,71478.0,-12.39,-13.55,-13.55,0,*65
1509310949.02,928,9.75,71470.0,-12.39,-13.55,-13.65,0,*69
1509310950.23,929,9.75,71474.0,-12.39,-13.51,-13.43,0,*68
1509310951.45,930,9.75,71480.8,-12.39,-13.37,-13.43,0,*60
1509310952.67,931,9.75,71480.0,-12.41,-13.43,-13.55,0,*6A
1509310953.88,932,9.75,71480.3,-12.43,-13.55,-13.55,0,*6C
1509310955.1,933,9.75,71482.8,-12.39,-13.29,-13.43,0,*6C
1509310956.36,934,9.75,71488.3,-12.39,-13.37,-13.37,0,*67
1509310957.61,935,9.75,71494.0,-12.39,-13.29,-13.37,0,*69
1509310958.87,936,9.75,71498.8,-12.35,-13.23,-13.33,0,*68
1509310960.12,937,9.75,71490.3,-12.39,-13.29,-13.37,0,*6B
1509310961.35,938,9.75,71484.0,-12.39,-13.37,-13.43,0,*68
1509310962.57,939,9.75,71490.3,-12.39,-13.37,-13.43,0,*69
1509310963.78,940,9.75,71488.3,-12.39,-13.51,-13.51,0,*64
1509310964.99,941,9.75,71486.3,-12.39,-13.43,-13.51,0,*66
1509310966.19,942,9.75,71486.8,-12.39,-13.51,-13.55,0,*62
1509310967.41,943,9.75,71484.0,-12.39,-13.51,-13.55,0,*63
1509310968.66,944,9.75,71476.0,-12.39,-13.37,-13.37,0,*60
1509310969.91,945,9.75,71474.0,-12.39,-13.37,-13.37,0,*61
1509310971.16,946,9.75,71464.8,-12.39,-13.37,-13.37,0,*62
1509310972.42,947,9.75,71466.0,-12.39,-13.29,-13.37,0,*6C
1509310973.67,948,9.75,71468.0,-12.39,-13.29,-13.37,0,*63
1509310974.9,949,9.75,71472.5,-12.39,-13.37,-13.51,0,*6D
1509310976.13,950,9.75,71478.8,-12.39,-13.37,-13.51,0,*65
1509310977.33,951,9.75,71474.8,-12.39,-13.43,-13.51,0,*67
1509310978.54,952,9.75,71468.0,-12.39,-13.51,-13.65,0,*60
1509310979.76,953,9.75,71458.8,-12.35,-13.47,-13.65,0,*6A
1509310981.03,954,9.75,71442.8,-12.39,-13.97,-14.05,0,*6D
1509310982.25,955,9.75,71430.5,-12.39,-13.73,-13.79,0,*6A
1509310983.52,956,9.75,71404.0,-12.41,-13.61,-13.61,0,*6C
1509310984.72,957,9.75,71398.0,-12.39,-13.55,-13.65,0,*61
1509310985.96,958,9.75,71392.8,-12.35,-13.51,-13.51,0,*61
1509310987.22,959,9.75,71386.3,-12.35,-13.51,-13.61,0,*63
1509310988.5,960,9.75,71390.3,-12.35,-13.61,-13.61,0,*6A
1509310989.7,961,9.75,71410.5,-12.39,-13.55,-13.65,0,*64
1509310990.93,962,9.75,71414.3,-12.35,-13.47,-13.51,0,*6F
1509310992.13,963,9.75,71420.0,-12.39,-13.43,-13.43,0,*65
1509310993.4,964,9.75,71432.0,-12.35,-13.33,-13.37,0,*6A
1509310994.66,965,9.75,71438.8,-12.39,-13.37,-13.37,0,*63
1509310995.91,966,9.75,71452.0,-12.39,-13.37,-13.37,0,*60
1509310997.14,967,9.75,71458.0,-12.35,-13.23,-13.23,0,*6D
1509310998.37,968,9.75,71464.5,-12.35,-13.23,-13.23,0,*62
1509310999.63,969,9.75,71472.0,-12.39,-13.37,-13.29,0,*60
1509311000.86,970,9.75,71482.3,-12.35,-13.23,-13.23,0,*6B
1509311002.09,971,9.75,71484.5,-12.35,-13.23,-13.23,0,*6A
1509311003.32,972,9.75,71486.8,-12.35,-13.19,-13.23,0,*60
1509311004.56,973,9.75,71486.0,-12.35,-13.19,-13.19,0,*68
1509311005.77,974,9.75,71486.8,-12.39,-13.23,-13.23,0,*63
1509311007.0,975,9.75,71490.3,-12.35,-13.19,-13.15,0,*62
1509311008.24,976,9.75,71494.0,-12.35,-13.19,-13.19,0,*6D
1509311009.44,977,9.75,71492.8,-12.39,-13.23,-13.23,0,*60
1509311010.7,978,9.75,71492.5,-12.35,-13.23,-13.33,0,*62
1509311011.93,979,9.75,71496.5,-12.35,-13.23,-13.23,0,*62
1509311013.17,980,9.75,71504.8,-12.35,-13.19,-13.19,0,*64
1509311014.4,981,9.75,71510.5,-12.35,-13.15,-13.19,0,*69
1509311015.64,982,9.75,71512.3,-12.35,-13.19,-13.19,0,*66
1509311016.85,983,9.75,71514.5,-12.33,-13.19,-13.19,0,*61
1509311018.06,984,9.75,71520.3,-12.33,-13.19,-13.19,0,*66
1509311019.32,985,9.75,71532.8,-12.33,-13.33,-13.33,0,*67
1509311020.55,986,9.75,71536.8,-12.35,-13.23,-13.23,0,*62
1509311021.78,987,9.75,71542.8,-12.35,-13.23,-13.23,0,*63
1509311023.03,988,9.75,71552.8,-12.33,-13.33,-13.33,0,*6A
1509311024.24,989,9.75,71556.3,-12.33,-13.23,-13.23,0,*6B
1509311025.43,990,9.75,71566.3,-12.33,-13.15,-13.23,0,*66
1509311026.64,991,9.75,71568.0,-12.33,-13.19,-13.23,0,*6B
1509311027.85,992,9.75,71570.5,-12.33,-13.19,-13.23,0,*68
1509311029.05,993,9.75,71574.3,-12.33,-13.23,-13.23,0,*60
1509311030.28,994,9.75,71574.8,-12.33,-13.23,-13.33,0,*66
1509311031.53,995,9.75,71568.3,-12.33,-13.33,-13.37,0,*62
1509311032.78,996,9.75,71568.8,-12.33,-13.37,-13.37,0,*65
1509311033.97,997,9.75,71572.8,-12.33,-13.47,-13.47,0,*64
1509311035.2,998,9.75,71582.0,-12.33,-13.37,-13.51,0,*6B
1509311036.48,999,9.75,71574.0,-12.35,-13.61,-13.61,0,*6C
1509311037.71,1000,9.75,71570.8,-12.35,-13.73,-13.73,0,*54
1509311038.97,1001,9.75,71524.0,-12.35,-13.73,-13.79,0,*5F
1509311040.23,1002,9.75,71522.0,-12.39,-13.83,-13.83,0,*5A
1509311041.51,1003,9.75,71480.8,-12.35,-13.87,-13.87,0,*57
1509311042.79,1004,9.75,71458.8,-12.35,-13.87,-13.87,0,*50
1509311044.05,1005,9.75,71446.3,-12.39,-13.83,-13.83,0,*5D
1509311045.3,1006,9.75,71440.3,-12.35,-13.73,-13.79,0,*58
1509311046.53,1007,9.75,71432.0,-12.39,-13.69,-13.83,0,*5B
1509311047.79,1008,9.75,71420.3,-12.39,-13.79,-13.79,0,*50
1509311049.04,1009,9.75,71414.0,-12.39,-13.79,-13.79,0,*51
1509311050.26,1010,9.75,71420.8,-12.39,-13.79,-13.69,0,*58
1509311051.47,1011,9.75,71436.3,-12.39,-13.65,-13.55,0,*5B
1509311052.68,1012,9.75,71458.3,-12.39,-13.43,-13.43,0,*5B
1509311053.91,1013,9.75,71470.3,-12.39,-13.37,-13.43,0,*59
1509311055.12,1014,9.75,71478.8,-12.39,-13.51,-13.55,0,*59
1509311056.34,1015,9.75,71488.3,-12.39,-13.51,-13.55,0,*58
1509311057.55,1016,9.75,71498.0,-12.39,-13.43,-13.51,0,*5C
1509311058.79,1017,9.75,71498.3,-12.39,-13.37,-13.51,0,*5E
1509311060.02,1018,9.75,71498.0,-12.39,-13.37,-13.43,0,*52
1509311061.28,1019,9.75,71498.5,-12.35,-13.33,-13.23,0,*5D
1509311062.54,1020,9.75,71500.8,-12.35,-13.23,-13.33,0,*57
1509311063.8,1021,9.75,71502.0,-12.35,-13.33,-13.23,0,*56
1509311065.05,1022,9.75,71504.3,-12.35,-13.47,-13.37,0,*53
1509311066.3,1023,9.75,71500.5,-12.35,-13.37,-13.47,0,*52
1509311067.59,1024,9.75,71502.3,-12.35,-13.33,-13.33,0,*52
1509311068.83,1025,9.75,71502.8,-12.35,-13.23,-13.23,0,*53
1509311070.06,1026,9.75,71498.8,-12.35,-13.23,-13.23,0,*50
1509311071.3,1027,9.75,71504.8,-12.35,-13.23,-13.23,0,*51
1509311072.56,1028,9.75,71510.3,-12.35,-13.33,-13.23,0,*5F
1509311073.82,1029,9.75,71512.8,-12.35,-13.33,-13.23,0,*5E
1509311075.11,1030,9.75,71514.0,-12.35,-13.37,-13.33,0,*53
1509311076.39,1031,9.75,71508.5,-12.35,-13.33,-13.33,0,*56
1509311077.63,1032,9.75,71504.8,-12.35,-13.23,-13.23,0,*55
1509311078.91,1033,9.75,71504.0,-12.35,-13.33,-13.37,0,*50
1509311080.17,1034,9.75,71510.3,-12.39,-13.37,-13.37,0,*5F
1509311081.41,1035,9.75,71518.3,-12.35,-13.23,-13.23,0,*52
1509311082.65,1036,9.75,71524.0,-12.35,-13.23,-13.19,0,*58
1509311083.91,1037,9.75,71526.3,-12.39,-13.37,-13.37,0,*5C
1509311085.19,1038,9.75,71524.0,-12.35,-13.37,-13.37,0,*5F
1509311086.44,1039,9.75,71522.5,-12.35,-13.33,-13.47,0,*5D
1509311087.73,1040,9.75,71522.5,-12.35,-13.33,-13.33,0,*50
1509311089.01,1041,9.75,71518.3,-12.35,-13.33,-13.33,0,*51
1509311090.26,1042,9.75,71508.0,-12.35,-13.37,-13.47,0,*55
1509311091.52,1043,9.75,71496.5,-12.35,-13.37,-13.47,0,*54
1509311092.74,1044,9.75,71494.3,-12.35,-13.47,-13.47,0,*54
1509311093.96,1045,9.75,71488.3,-12.35,-13.47,-13.47,0,*55
1509311095.25,1046,9.75,71488.3,-12.35,-13.61,-13.61,0,*56
1509311096.52,1047,9.75,71496.0,-12.35,-13.51,-13.61,0,*54
1509311097.75,1048,9.75,71494.0,-12.35,-13.47,-13.51,0,*5F
1509311099.01,1049,9.75,71494.5,-12.35,-13.61,-13.65,0,*5D
1509311100.26,1050,9.75,71486.8,-12.35,-13.61,-13.65,0,*55
1509311101.47,1051,9.75,71472.0,-12.39,-13.65,-13.69,0,*50
1509311102.72,1052,9.75,71472.3,-12.35,-13.61,-13.73,0,*50
1509311103.98,1053,9.75,71468.5,-12.35,-13.61,-13.65,0,*56
1509311105.19,1054,9.75,71470.0,-12.39,-13.55,-13.69,0,*56
1509311106.47,1055,9.75,71468.5,-12.35,-13.61,-13.61,0,*54
1509311107.7,1056,9.75,71464.0,-12.35,-13.47,-13.47,0,*57
1509311108.95,1057,9.75,71464.8,-12.35,-13.47,-13.37,0,*51
1509311110.23,1058,9.75,71468.8,-12.35,-13.37,-13.37,0,*59
1509311111.5,1059,9.75,71468.0,-12.35,-13.23,-13.33,0,*59
1509311112.73,1060,9.75,71474.5,-12.35,-13.23,-13.23,0,*52
1509311113.97,1061,9.75,71476.0,-12.35,-13.23,-13.23,0,*53
1509311115.21,1062,9.75,71480.3,-12.35,-13.23,-13.23,0,*50
1509311116.45,1063,9.75,71480.3,-12.35,-13.23,-13.23,0,*51
1509311117.69,1064,9.75,71482.5,-12.35,-13.23,-13.23,0,*56
1509311118.94,1065,9.75,71480.3,-12.35,-13.33,-13.23,0,*56
1509311120.2,1066,9.75,71480.0,-12.39,-13.29,-13.37,0,*57
1509311121.46,1067,9.75,71480.8,-12.33,-13.33,-13.33,0,*53
1509311122.7,1068,9.75,71486.0,-12.33,-13.23,-13.33,0,*5D
1509311123.93,1069,9.75,71484.0,-12.33,-13.33,-13.23,0,*5C
1509311125.17,1070,9.75,71490.3,-12.35,-13.23,-13.23,0,*53
1509311126.4,1071,9.75,71488.0,-12.35,-13.23,-13.23,0,*52
1509311127.64,1072,9.75,71488.3,-12.35,-13.23,-13.23,0,*51
1509311128.85,1073,9.75,71494.0,-12.33,-13.23,-13.23,0,*56
1509311130.07,1074,9.75,71496.3,-12.33,-13.19,-13.19,0,*51
1509311131.28,1075,9.75,71502.0,-12.33,-13.19,-13.15,0,*5C
1509311132.49,1076,9.75,71498.5,-12.33,-13.19,-13.19,0,*53
1509311133.74,1077,9.75,71506.8,-12.31,-13.19,-13.19,0,*50
1509311134.98,1078,9.75,71504.8,-12.31,-13.15,-13.19,0,*53
1509311136.2,1079,9.75,71510.3,-12.33,-13.19,-13.19,0,*5C
1509311137.41,1080,9.75,71514.0,-12.33,-13.19,-13.23,0,*53
1509311138.65,1081,9.75,71510.0,-12.31,-13.19,-13.23,0,*50
1509311139.86,1082,9.75,71508.5,-12.33,-13.19,-13.23,0,*51
1509311141.11,1083,9.75,71510.5,-12.31,-13.19,-13.23,0,*52
1509311142.32,1084,9.75,71510.8,-12.33,-13.19,-13.23,0,*57
1509311143.56,1085,9.75,71508.5,-12.31,-13.15,-13.19,0,*51
1509311144.79,1086,9.75,71510.5,-12.31,-13.15,-13.15,0,*5E
1509311146.0,1087,9.75,71508.8,-12.33,-13.19,-13.19,0,*5D
1509311147.2,1088,9.75,71508.3,-12.33,-13.15,-13.15,0,*52
1509311148.44,1089,9.75,71506.5,-12.31,-13.15,-13.19,0,*5D
1509311149.68,1090,9.75,71506.8,-12.31,-13.19,-13.15,0,*55
1509311150.93,1091,9.75,71508.3,-12.31,-13.19,-13.19,0,*58
1509311152.18,1092,9.75,71512.3,-12.31,-13.15,-13.01,0,*5E
1509311153.42,1093,9.75,71510.5,-12.31,-13.07,-13.07,0,*5A
1509311154.64,1094,9.75,71508.8,-12.33,-13.07,-13.01,0,*59
1509311155.88,1095,9.75,71508.3,-12.31,-13.07,-13.07,0,*5C
1509311157.14,1096,9.75,71508.3,-12.31,-13.01,-13.07,0,*59
1509311158.37,1097,9.75,71506.8,-12.31,-13.07,-13.15,0,*5D
1509311159.63,1098,9.75,71504.8,-12.31,-13.01,-13.07,0,*57
1509311160.89,1099,9.75,71502.0,-12.31,-13.15,-13.01,0,*55
1509311162.12,1100,9.75,71496.8,-12.31,-13.19,-13.07,0,*5E
1509311163.36,1101,9.75,71498.0,-12.31,-13.15,-13.07,0,*53
1509311164.59,1102,9.75,71494.0,-12.31,-13.07,-13.07,0,*53
1509311165.83,1103,9.75,71492.8,-12.31,-13.19,-13.15,0,*5E
1509311167.03,1104,9.75,71492.8,-12.33,-13.19,-13.15,0,*5B
1509311168.26,1105,9.75,71496.8,-12.31,-13.15,-13.15,0,*54
1509311169.5,1106,9.75,71498.3,-12.31,-13.15,-13.19,0,*5B
1509311170.74,1107,9.75,71506.3,-12.31,-13.15,-13.19,0,*5A
1509311171.97,1108,9.75,71508.5,-12.31,-13.15,-13.15,0,*59
1509311173.2,1109,9.75,71522.5,-12.31,-13.15,-13.15,0,*58
1509311174.41,1110,9.75,71526.0,-12.29,-13.15,-13.15,0,*59
1509311175.64,1111,9.75,71526.5,-12.31,-13.07,-13.15,0,*52
                                                                                                                                                                                                                                                                                                                                                                  1509311283.61,1198,9.75,71532.3,-12.31,-13.47,-13.37,0,*57
1509311284.85,1199,9.75,71530.5,-12.29,-13.43,-13.33,0,*5F
1509311286.09,1200,9.75,71532.8,-12.29,-13.43,-13.33,0,*5C
1509311287.29,1201,9.75,71528.8,-12.29,-13.47,-13.43,0,*5E
1509311288.5,1202,9.75,71518.0,-12.29,-13.55,-13.43,0,*5E
1509311289.72,1203,9.75,71508.3,-12.27,-13.55,-13.47,0,*55
1509311290.93,1204,9.75,71510.5,-12.29,-13.55,-13.43,0,*58
1509311292.14,1205,9.75,71512.3,-12.29,-13.55,-13.43,0,*59
1509311293.35,1206,9.75,71512.8,-12.29,-13.55,-13.55,0,*5D
1509311294.55,1207,9.75,71522.0,-12.29,-13.47,-13.47,0,*5C
1509311295.75,1208,9.75,71522.3,-12.29,-13.47,-13.47,0,*53
1509311296.95,1209,9.75,71516.3,-12.29,-13.47,-13.43,0,*56
1509311298.19,1210,9.75,71510.5,-12.27,-13.55,-13.55,0,*54
1509311299.45,1211,9.75,71460.3,-12.29,-13.61,-13.61,0,*5B
1509311300.69,1212,9.75,71462.8,-12.29,-13.55,-13.61,0,*5F
1509311301.92,1213,9.75,71478.0,-12.29,-13.61,-13.55,0,*5E
1509311303.13,1214,9.75,71474.0,-12.29,-13.73,-13.73,0,*5E
1509311304.4,1215,9.75,71458.8,-12.29,-13.83,-13.83,0,*5F
1509311305.66,1216,9.75,71474.0,-12.29,-13.87,-13.97,0,*5D
1509311306.94,1217,9.75,71472.5,-12.27,-13.87,-13.87,0,*53
1509311308.2,1218,9.75,71474.0,-12.31,-13.87,-13.93,0,*5E
1509311309.4,1219,9.75,71478.5,-12.33,-13.73,-13.73,0,*58
1509311310.64,1220,9.75,71500.3,-12.31,-13.51,-13.65,0,*57
1509311311.89,1221,9.75,71500.8,-12.31,-13.51,-13.65,0,*56
1509311313.12,1222,9.75,71486.3,-12.31,-13.65,-13.65,0,*52
1509311314.35,1223,9.75,71474.0,-12.31,-13.65,-13.65,0,*53
1509311315.56,1224,9.75,71448.3,-12.33,-13.73,-13.73,0,*56
1509311316.84,1225,9.75,71446.8,-12.31,-13.79,-13.79,0,*55
1509311318.07,1226,9.75,71454.0,-12.31,-13.65,-13.65,0,*56
1509311319.29,1227,9.75,71460.3,-12.33,-13.51,-13.51,0,*55
1509311320.48,1228,9.75,71462.3,-12.33,-13.47,-13.47,0,*5A
1509311321.75,1229,9.75,71464.5,-12.31,-13.37,-13.51,0,*59
1509311323.02,1230,9.75,71458.5,-12.31,-13.51,-13.61,0,*52
1509311324.3,1231,9.75,71466.0,-12.31,-13.37,-13.37,0,*50
1509311325.53,1232,9.75,71462.0,-12.31,-13.47,-13.47,0,*53
1509311326.79,1233,9.75,71476.5,-12.31,-13.37,-13.51,0,*52
1509311328.06,1234,9.75,71512.8,-12.31,-13.37,-13.51,0,*55
1509311329.29,1235,9.75,71502.0,-12.31,-13.65,-13.73,0,*53
1509311330.52,1236,9.75,71488.5,-12.31,-13.65,-13.65,0,*57
1509311331.73,1237,9.75,71488.0,-12.33,-13.47,-13.51,0,*53
1509311332.98,1238,9.75,71492.8,-12.31,-13.73,-13.79,0,*53
1509311334.27,1239,9.75,71496.5,-12.31,-13.79,-13.87,0,*59
1509311335.55,1240,9.75,71500.8,-12.31,-13.79,-13.87,0,*57
1509311336.83,1241,9.75,71480.0,-12.31,-13.79,-13.79,0,*57
1509311338.06,1242,9.75,71474.5,-12.31,-13.65,-13.65,0,*54
1509311339.33,1243,9.75,71470.0,-12.31,-13.51,-13.61,0,*56
1509311340.58,1244,9.75,71468.8,-12.31,-13.51,-13.51,0,*52
1509311341.85,1245,9.75,71456.0,-12.31,-13.51,-13.61,0,*50
1509311343.14,1246,9.75,71462.3,-12.31,-13.61,-13.61,0,*50
1509311344.37,1247,9.75,71476.8,-12.31,-13.65,-13.73,0,*56
1509311345.61,1248,9.75,71492.8,-12.33,-13.51,-13.61,0,*5F
1509311346.85,1249,9.75,71486.3,-12.33,-13.37,-13.51,0,*5D
1509311348.07,1250,9.75,71474.5,-12.31,-13.47,-13.47,0,*57
1509311349.31,1251,9.75,71470.8,-12.31,-13.47,-13.51,0,*51
1509311350.57,1252,9.75,71470.3,-12.31,-13.47,-13.61,0,*51
1509311351.81,1253,9.75,71458.3,-12.31,-13.51,-13.51,0,*54
1509311353.04,1254,9.75,71454.0,-12.31,-13.65,-13.65,0,*53
1509311354.32,1255,9.75,71472.5,-12.31,-13.51,-13.61,0,*51
1509311355.59,1256,9.75,71464.3,-12.31,-13.51,-13.61,0,*52
1509311356.82,1257,9.75,71472.5,-12.31,-13.51,-13.47,0,*57
1509311358.08,1258,9.75,71488.8,-12.31,-13.37,-13.47,0,*58
1509311359.29,1259,9.75,71476.3,-12.33,-13.51,-13.47,0,*5B
1509311360.55,1260,9.75,71494.3,-12.31,-13.47,-13.61,0,*50
1509311361.84,1261,9.75,71498.0,-12.31,-13.61,-13.61,0,*55
1509311363.11,1262,9.75,71488.0,-12.31,-13.51,-13.61,0,*55
1509311364.32,1263,9.75,71486.8,-12.33,-13.51,-13.51,0,*55
1509311365.57,1264,9.75,71466.5,-12.31,-13.51,-13.51,0,*50
1509311366.85,1265,9.75,71448.8,-12.31,-13.37,-13.37,0,*51
1509311368.11,1266,9.75,71482.8,-12.31,-13.37,-13.47,0,*55
1509311369.34,1267,9.75,71516.3,-12.31,-13.47,-13.51,0,*54
1509311370.57,1268,9.75,71518.0,-12.31,-13.47,-13.47,0,*5C
1509311371.8,1269,9.75,71504.8,-12.33,-13.61,-13.51,0,*5C
1509311373.04,1270,9.75,71492.5,-12.33,-13.51,-13.61,0,*54
1509311374.31,1271,9.75,71486.8,-12.31,-13.61,-13.51,0,*57
1509311375.6,1272,9.75,71480.3,-12.31,-13.61,-13.61,0,*57
1509311376.8,1273,9.75,71488.8,-12.33,-13.47,-13.51,0,*53
1509311378.06,1274,9.75,71486.5,-12.31,-13.37,-13.47,0,*56
1509311379.29,1275,9.75,71486.8,-12.31,-13.47,-13.47,0,*50
1509311380.54,1276,9.75,71488.8,-12.31,-13.37,-13.47,0,*54
1509311381.81,1277,9.75,71488.3,-12.31,-13.23,-13.37,0,*57
1509311383.09,1278,9.75,71494.3,-12.31,-13.37,-13.37,0,*5D
1509311384.35,1279,9.75,71490.0,-12.31,-13.33,-13.47,0,*5F
1509311385.58,1280,9.75,71490.8,-12.29,-13.19,-13.29,0,*50
1509311386.85,1281,9.75,71486.0,-12.29,-13.29,-13.33,0,*59
1509311388.11,1282,9.75,71482.5,-12.29,-13.29,-13.29,0,*51
1509311389.37,1283,9.75,71470.3,-12.31,-13.23,-13.37,0,*5C
1509311390.66,1284,9.75,71494.0,-12.31,-13.33,-13.37,0,*5A
1509311391.92,1285,9.75,71494.0,-12.31,-13.23,-13.33,0,*5E
1509311393.18,1286,9.75,71502.5,-12.29,-13.29,-13.33,0,*5E
1509311394.45,1287,9.75,71496.5,-12.29,-13.29,-13.33,0,*5F
1509311395.71,1288,9.75,71490.8,-12.29,-13.33,-13.33,0,*5B
1509311396.97,1289,9.75,71482.3,-12.29,-13.33,-13.33,0,*5A
1509311398.2,1290,9.75,71472.0,-12.29,-13.33,-13.43,0,*55
1509311399.46,1291,9.75,71480.8,-12.29,-13.33,-13.33,0,*53
1509311400.72,1292,9.75,71480.5,-12.29,-13.29,-13.29,0,*50
1509311401.96,1293,9.75,71492.3,-12.29,-13.19,-13.33,0,*59
1509311403.2,1294,9.75,71496.8,-12.29,-13.19,-13.33,0,*5E
1509311404.46,1295,9.75,71498.3,-12.29,-13.29,-13.33,0,*5C
1509311405.68,1296,9.75,71504.5,-12.29,-13.19,-13.19,0,*54